This demonstration page uses our WeatherBlox Daily Observations layout. Learn more.

Left ArrowRight Arrow

Hourly Observations for July 16, 2016

Temp ( °F °C ) Dew Point ( °F °C ) Humidity (%) Winds ( mph kmh ) Pressure ( in mb ) Visibility ( mi km ) Precip ( " mm )
12:15 am 00:15 Clear 63 17 60 15.4 90 90 ESE 7 11 30.06 1018 10 16 N/A
12:35 am 00:35 Clear 63 17 59 15.2 89 89 ESE 7 11 30.06 1018 10 16 N/A
12:55 am 00:55 Clear 63 17 59 15.2 89 89 SE 9 15 30.06 1018 10 16 N/A
1:15 am 01:15 Clear 62 16.7 59 15 90 90 ESE 12 19 30.06 1018 10 16 N/A
1:35 am 01:35 Clear 62 16.5 59 15 91 91 SE 9 15 30.03 1017 10 16 N/A
1:55 am 01:55 Clear 62 16.5 59 15 91 91 SE 8 13 30.03 1017 10 16 N/A
2:15 am 02:15 Partly Cloudy 61 16.3 59 15 92 92 SE 9 15 30.03 1017 7 11 N/A
2:35 am 02:35 Cloudy 62 16.5 59 15.2 92 92 SE 8 13 30.03 1017 7 11 N/A
2:55 am 02:55 Cloudy 61 16.3 59 14.9 91 91 SE 6 9 30.03 1017 7 11 N/A
3:15 am 03:15 Cloudy 62 16.4 59 15 91 91 SE 7 11 30.03 1017 7 11 N/A
3:35 am 03:35 Mostly Cloudy 61 16.3 59 15 92 92 SSE 7 11 30.03 1017 7 11 N/A
3:55 am 03:55 Mostly Cloudy 61 16.3 59 15 92 92 SE 5 7 30.03 1017 7 11 N/A
4:15 am 04:15 Cloudy 62 16.5 59 15 91 91 SSE 5 7 30.03 1017 10 16 N/A
4:35 am 04:35 Cloudy 62 16.6 59 15 90 90 S 6 9 30.03 1017 10 16 N/A
4:55 am 04:55 Cloudy 62 16.6 59 15 90 90 SSE 5 7 30.03 1017 10 16 N/A
5:15 am 05:15 Cloudy 62 16.7 58 14.7 88 88 SE 6 9 30.03 1017 10 16 N/A
5:35 am 05:35 Cloudy 62 16.6 59 15 90 90 SSE 6 9 30.00 1016 10 16 N/A
5:55 am 05:55 Cloudy 62 16.5 59 14.9 90 90 SSE 7 11 30.00 1016 10 16 N/A
6:15 am 06:15 Partly Cloudy 61 16.1 58 14.6 91 91 SE 5 7 30.00 1016 10 16 N/A
6:35 am 06:35 Sunny 61 16.1 59 14.8 92 92 SE 7 11 30.00 1016 10 16 N/A
6:55 am 06:55 Sunny 61 16.3 59 15 92 92 SE 5 7 30.00 1016 10 16 N/A
7:15 am 07:15 Partly Cloudy 62 16.5 59 15 91 91 SE 6 9 30.00 1016 10 16 N/A
7:35 am 07:35 Cloudy 62 16.7 59 15.2 91 91 SE 7 11 30.00 1016 7 11 N/A
7:55 am 07:55 Cloudy 63 17.1 60 15.5 90 90 SE 6 9 29.97 1015 7 11 N/A
8:15 am 08:15 Cloudy 64 17.6 61 16 90 90 SSE 9 15 29.97 1015 10 16 N/A
8:35 am 08:35 Cloudy 64 18 61 16.3 90 90 S 9 15 29.97 1015 10 16 N/A
8:55 am 08:55 Cloudy 65 18.5 62 16.5 88 88 S 12 19 29.97 1015 10 16 N/A
9:15 am 09:15 Cloudy 66 18.9 62 16.7 87 87 SSE 12 19 29.97 1015 10 16 N/A
9:35 am 09:35 Cloudy 66 19 62 16.9 88 88 S 12 19 29.97 1015 10 16 N/A
9:55 am 09:55 Cloudy 67 19.5 63 17 86 86 SSE 12 19 29.97 1015 10 16 N/A
10:15 am 10:15 Cloudy 70 21 64 17.6 81 81 SSE 13 20 29.94 1014 10 16 N/A
10:35 am 10:35 Cloudy 70 21 63 17.3 80 80 S 14 22 29.94 1014 10 16 N/A
10:55 am 10:55 Cloudy 71 21.8 64 17.7 78 78 S 13 20 29.91 1013 10 16 N/A
11:15 am 11:15 Partly Cloudy 73 22.5 63 17.4 73 73 SSE 13 20 29.91 1013 10 16 N/A
11:35 am 11:35 Sunny 74 23.5 63 17.4 69 69 SSE 14 22 29.85 1011 10 16 N/A
11:55 am 11:55 Sunny 76 24.7 64 17.6 65 65 S 14 22 29.85 1011 10 16 N/A
12:15 pm 12:15 Sunny 78 25.5 64 17.5 61 61 SSE 15 24 29.85 1011 10 16 N/A
12:35 pm 12:35 Sunny 80 26.4 63 17 56 56 SSE 15 24 29.85 1011 10 16 N/A
12:55 pm 12:55 Sunny 80 26.6 63 17.4 57 57 SSE 15 24 29.80 1009 10 16 N/A
1:15 pm 13:15 Sunny 80 26.8 64 18 59 59 S 14 22 29.83 1010 10 16 N/A
1:35 pm 13:35 Partly Cloudy 80 26.7 64 17.9 59 59 S 12 19 29.83 1010 10 16 N/A
1:55 pm 13:55 Mostly Cloudy 81 27.1 65 18.3 59 59 S 10 17 29.80 1009 10 16 N/A
2:15 pm 14:15 Partly Cloudy 81 27.4 65 18.4 58 58 SSE 12 19 29.77 1008 10 16 N/A
2:35 pm 14:35 Partly Cloudy 80 26.9 64 17.9 58 58 SSE 14 22 29.77 1008 10 16 N/A
2:55 pm 14:55 Sunny 82 27.5 64 18 56 56 SSE 14 22 29.77 1008 10 16 N/A
3:15 pm 15:15 Sunny 81 27 65 18.1 58 58 SSE 16 26 29.77 1008 10 16 N/A
3:35 pm 15:35 Sunny 82 27.6 65 18.5 58 58 SSE 16 26 29.74 1007 10 16 N/A
3:55 pm 15:55 Sunny 82 27.6 66 18.9 59 59 SE 16 26 29.74 1007 10 16 N/A
4:15 pm 16:15 Sunny 83 28.3 67 19.7 60 60 SSE 16 26 29.74 1007 10 16 N/A
4:35 pm 16:35 Sunny 84 28.8 68 19.9 59 59 SSE 12 19 29.71 1006 10 16 N/A
4:55 pm 16:55 Sunny 83 28.4 67 19.2 57 57 SE 13 20 29.68 1005 10 16 N/A
5:15 pm 17:15 Sunny 83 28.6 67 19.3 57 57 SSE 13 20 29.71 1006 10 16 N/A
5:35 pm 17:35 Sunny 85 29.6 67 19.2 54 54 SE 10 17 29.65 1004 10 16 N/A
5:55 pm 17:55 Sunny 87 30.4 67 19.2 51 51 SSE 13 20 29.68 1005 10 16 N/A
6:15 pm 18:15 Sunny 87 30.3 66 18.8 50 50 SSE 17 28 29.68 1005 10 16 N/A
6:35 pm 18:35 Sunny 85 29.3 67 19.3 55 55 SSE 12 19 29.65 1004 10 16 N/A
6:55 pm 18:55 Sunny 84 29.1 66 18.9 54 54 SSE 10 17 29.68 1005 10 16 N/A
7:15 pm 19:15 Sunny 83 28.5 66 19 56 56 SSE 10 17 29.68 1005 10 16 N/A
7:35 pm 19:35 Sunny 83 28.5 66 19.1 57 57 SE 9 15 29.68 1005 10 16 N/A
7:55 pm 19:55 Sunny 84 28.7 67 19.6 58 58 SE 6 9 29.71 1006 10 16 N/A
8:15 pm 20:15 Sunny 82 27.5 67 19.7 63 63 SSE 7 11 29.71 1006 10 16 N/A
8:35 pm 20:35 Sunny 79 26.1 67 19.7 68 68 SSE 8 13 29.71 1006 10 16 N/A
8:55 pm 20:55 Sunny 80 26.5 67 19.2 64 64 SE 8 13 29.71 1006 10 16 N/A
9:15 pm 21:15 Clear 78 25.7 66 19.1 67 67 SSE 8 13 29.71 1006 10 16 N/A
9:35 pm 21:35 Clear 77 24.9 66 19 70 70 SSE 10 17 29.74 1007 10 16 N/A
9:55 pm 21:55 Clear 77 24.8 65 18.2 67 67 S 13 20 29.74 1007 10 16 N/A
10:15 pm 22:15 Clear 77 25.1 64 17.6 63 63 S 14 22 29.74 1007 10 16 N/A
10:35 pm 22:35 Clear 78 25.5 63 17.2 60 60 S 17 28 29.77 1008 10 16 N/A
10:55 pm 22:55 Clear 78 25.5 63 17 59 59 S 16 26 29.77 1008 10 16 N/A
11:15 pm 23:15 Clear 78 25.5 62 16.8 59 59 S 21 33 29.71 1006 10 16 N/A
11:35 pm 23:35 Clear 77 25.1 62 16.9 60 60 S 15 24 29.74 1007 10 16 N/A
11:55 pm 23:55 Clear 78 25.5 62 16.6 58 58 S 21 33 29.71 1006 10 16 N/A

Powered by AerisWeather